TimeEDT,TemperatureF,Dew PointF,Humidity,Sea Level PressureIn,VisibilityMPH,Wind Direction,Wind SpeedMPH,Gust SpeedMPH,PrecipitationIn,Events,Conditions,WindDirDegrees,DateUTC
12:15 AM,73.4,71.6,94,30.13,10.0,Calm,Calm,-,N/A,,Clear,0,2013-07-16 04:15:00
12:35 AM,73.4,71.6,94,30.12,10.0,Calm,Calm,-,N/A,,Clear,0,2013-07-16 04:35:00
12:55 AM,73.4,71.6,94,30.12,10.0,Calm,Calm,-,N/A,,Clear,0,2013-07-16 04:55:00
1:15 AM,71.6,71.6,100,30.11,10.0,Calm,Calm,-,N/A,,Clear,0,2013-07-16 05:15:00
1:35 AM,71.6,71.6,100,30.10,10.0,Calm,Calm,-,N/A,,Clear,0,2013-07-16 05:35:00
1:55 AM,71.6,71.6,100,30.11,10.0,ENE,3.5,-,N/A,,Clear,70,2013-07-16 05:55:00
2:15 AM,71.6,71.6,100,30.11,10.0,Calm,Calm,-,N/A,,Clear,0,2013-07-16 06:15:00
2:35 AM,71.6,71.6,100,30.11,10.0,East,3.5,-,N/A,,Clear,80,2013-07-16 06:35:00
2:55 AM,71.6,71.6,100,30.10,10.0,Calm,Calm,-,N/A,,Clear,0,2013-07-16 06:55:00
3:15 AM,71.6,71.6,100,30.10,10.0,Calm,Calm,-,N/A,,Clear,0,2013-07-16 07:15:00
3:35 AM,71.6,71.6,100,30.10,10.0,Calm,Calm,-,N/A,,Clear,0,2013-07-16 07:35:00
3:55 AM,71.6,71.6,100,30.09,10.0,Calm,Calm,-,N/A,,Clear,0,2013-07-16 07:55:00
4:15 AM,71.6,71.6,100,30.09,10.0,ENE,3.5,-,N/A,,Scattered Clouds,70,2013-07-16 08:15:00
4:35 AM,71.6,71.6,100,30.09,10.0,Calm,Calm,-,N/A,,Clear,0,2013-07-16 08:35:00
4:55 AM,71.6,69.8,94,30.09,10.0,ENE,3.5,-,N/A,,Clear,60,2013-07-16 08:55:00
5:15 AM,71.6,69.8,94,30.09,10.0,Calm,Calm,-,N/A,,Clear,0,2013-07-16 09:15:00
5:35 AM,71.6,69.8,94,30.09,10.0,Calm,Calm,-,N/A,,Clear,0,2013-07-16 09:35:00
5:55 AM,71.6,69.8,94,30.09,10.0,Calm,Calm,-,N/A,,Clear,0,2013-07-16 09:55:00
6:15 AM,69.8,69.8,100,30.09,10.0,Calm,Calm,-,N/A,,Clear,0,2013-07-16 10:15:00
6:35 AM,69.8,69.8,100,30.09,10.0,Calm,Calm,-,N/A,,Clear,0,2013-07-16 10:35:00
6:55 AM,69.8,69.8,100,30.10,10.0,NE,4.6,-,N/A,,Clear,50,2013-07-16 10:55:00
7:15 AM,69.8,69.8,100,30.11,10.0,Calm,Calm,-,N/A,,Clear,0,2013-07-16 11:15:00
7:35 AM,71.6,69.8,94,30.11,10.0,Calm,Calm,-,N/A,,Scattered Clouds,0,2013-07-16 11:35:00
7:55 AM,71.6,69.8,94,30.12,10.0,Calm,Calm,-,N/A,,Clear,0,2013-07-16 11:55:00
8:15 AM,71.6,71.6,100,30.13,10.0,Calm,Calm,-,N/A,,Scattered Clouds,0,2013-07-16 12:15:00
8:35 AM,75.2,71.6,89,30.13,10.0,Calm,Calm,-,N/A,,Scattered Clouds,0,2013-07-16 12:35:00
8:55 AM,77.0,71.6,83,30.13,10.0,East,4.6,-,N/A,,Clear,90,2013-07-16 12:55:00
9:15 AM,78.8,71.6,78,30.14,10.0,East,6.9,-,N/A,,Clear,100,2013-07-16 13:15:00
9:35 AM,80.6,71.6,74,30.14,10.0,East,9.2,-,N/A,,Clear,80,2013-07-16 13:35:00
9:55 AM,80.6,71.6,74,30.14,10.0,East,10.4,18.4,N/A,,Scattered Clouds,100,2013-07-16 13:55:00
10:15 AM,80.6,71.6,74,30.14,10.0,East,10.4,-,N/A,,Scattered Clouds,90,2013-07-16 14:15:00
10:35 AM,82.4,71.6,70,30.14,10.0,East,11.5,16.1,N/A,,Scattered Clouds,90,2013-07-16 14:35:00
10:55 AM,82.4,71.6,70,30.14,10.0,East,12.7,18.4,N/A,,Scattered Clouds,100,2013-07-16 14:55:00
11:15 AM,82.4,71.6,70,30.14,10.0,East,9.2,-,N/A,,Scattered Clouds,90,2013-07-16 15:15:00
11:35 AM,84.2,71.6,66,30.15,10.0,East,10.4,19.6,N/A,,Scattered Clouds,100,2013-07-16 15:35:00
11:55 AM,82.4,71.6,70,30.15,10.0,East,10.4,16.1,N/A,Thunderstorm,Thunderstorm,100,2013-07-16 15:55:00
12:15 PM,77.0,71.6,83,30.15,10.0,SSE,6.9,-,0.02,Thunderstorm,Mostly Cloudy,150,2013-07-16 16:15:00
12:35 PM,77.0,71.6,83,30.17,10.0,ESE,9.2,-,0.02,Thunderstorm,Thunderstorm,120,2013-07-16 16:35:00
12:55 PM,73.4,71.6,94,30.18,10.0,SSE,12.7,-,0.02,Thunderstorm,Thunderstorm,150,2013-07-16 16:55:00
1:15 PM,71.6,69.8,94,30.19,2.5,East,8.1,-,0.11,Rain-Thunderstorm,Heavy Thunderstorms and Rain,100,2013-07-16 17:15:00
1:35 PM,71.6,69.8,94,30.18,7.0,SE,5.8,-,0.14,Rain,Rain,140,2013-07-16 17:35:00
1:55 PM,71.6,69.8,94,30.18,10.0,SE,5.8,-,0.16,Rain,Light Rain,140,2013-07-16 17:55:00
2:15 PM,71.6,69.8,94,30.19,4.0,Calm,Calm,-,0.04,Rain,Rain,0,2013-07-16 18:15:00
2:35 PM,71.6,69.8,94,30.17,10.0,Calm,Calm,-,0.07,Rain,Light Rain,0,2013-07-16 18:35:00
2:55 PM,71.6,71.6,100,30.15,10.0,Calm,Calm,-,0.10,Rain,Light Rain,0,2013-07-16 18:55:00
3:15 PM,71.6,69.8,94,30.14,5.0,Calm,Calm,-,0.03,Rain,Rain,0,2013-07-16 19:15:00
3:35 PM,71.6,69.8,94,30.14,10.0,East,3.5,-,0.06,Rain,Light Rain,100,2013-07-16 19:35:00
3:55 PM,71.6,71.6,100,30.13,10.0,East,4.6,-,0.06,Rain,Light Rain,90,2013-07-16 19:55:00
4:55 PM,73.4,71.6,94,30.13,10.0,ENE,3.5,-,N/A,Thunderstorm,Clear,70,2013-07-16 20:55:00
5:15 PM,73.4,71.6,94,30.13,10.0,NE,6.9,-,N/A,,Clear,40,2013-07-16 21:15:00
5:35 PM,73.4,71.6,94,30.13,10.0,NE,9.2,-,N/A,,Clear,50,2013-07-16 21:35:00
5:55 PM,73.4,71.6,94,30.11,10.0,NE,6.9,-,N/A,,Clear,50,2013-07-16 21:55:00
6:15 PM,73.4,71.6,94,30.11,10.0,ENE,4.6,-,N/A,,Clear,70,2013-07-16 22:15:00
6:35 PM,73.4,71.6,94,30.12,10.0,ENE,5.8,-,N/A,,Clear,60,2013-07-16 22:35:00
6:55 PM,73.4,71.6,94,30.12,10.0,ENE,8.1,-,N/A,,Scattered Clouds,60,2013-07-16 22:55:00
7:15 PM,73.4,71.6,94,30.12,10.0,East,4.6,-,N/A,,Clear,80,2013-07-16 23:15:00
7:35 PM,73.4,71.6,94,30.13,10.0,NE,4.6,-,N/A,,Clear,40,2013-07-16 23:35:00
7:55 PM,73.4,71.6,94,30.14,10.0,NE,4.6,-,N/A,,Clear,40,2013-07-16 23:55:00
8:15 PM,73.4,71.6,94,30.13,10.0,Calm,Calm,-,N/A,Thunderstorm,Clear,0,2013-07-17 00:15:00
8:35 PM,73.4,71.6,94,30.14,10.0,Calm,Calm,-,N/A,Thunderstorm,Clear,0,2013-07-17 00:35:00
8:55 PM,71.6,71.6,100,30.14,10.0,Calm,Calm,-,N/A,,Clear,0,2013-07-17 00:55:00
9:15 PM,71.6,71.6,100,30.14,10.0,Calm,Calm,-,N/A,,Clear,0,2013-07-17 01:15:00
9:35 PM,71.6,71.6,100,30.14,10.0,Calm,Calm,-,N/A,,Clear,0,2013-07-17 01:35:00
9:55 PM,71.6,71.6,100,30.15,10.0,NNE,3.5,-,N/A,,Clear,30,2013-07-17 01:55:00
10:15 PM,71.6,71.6,100,30.15,10.0,Calm,Calm,-,N/A,,Clear,0,2013-07-17 02:15:00
10:35 PM,71.6,71.6,100,30.15,10.0,NNE,4.6,-,N/A,,Clear,30,2013-07-17 02:35:00
10:55 PM,71.6,71.6,100,30.15,10.0,NE,5.8,-,N/A,,Clear,40,2013-07-17 02:55:00
11:15 PM,71.6,71.6,100,30.15,10.0,ENE,4.6,-,N/A,,Clear,60,2013-07-17 03:15:00
11:35 PM,71.6,71.6,100,30.15,10.0,ENE,5.8,-,N/A,,Clear,60,2013-07-17 03:35:00
11:55 PM,71.6,71.6,100,30.15,10.0,ENE,3.5,-,N/A,,Clear,70,2013-07-17 03:55:00